Location: Olsztyn
(53.7767°N, 20.4765°E)
Time: 20:14:55
(UTC+02:00)

Envisat - Pass Details

Date: 26 February 2024
Orbit: 762 x 764 km, 98.3° (Epoch: 20 April)

Event Time Altitude Azimuth Distance (km) Brightness Sun altitude
Rises 02:09:36 0° 22° (NNE) 3,245 7.1 -37.3°
Reaches altitude 10° 02:12:19 10° 36° (NE) 2,314 6.2 -37.0°
Enters shadow 02:15:39 24° 75° (ENE) 1,539 5.0 -36.7°
